Zurück zum Katalog

STARLINK-35480

AktivKommunikationVLEO
NORAD 66242·PAYLOAD·🇺🇸 United States

Gestartet Oct 29, 2025 von Cape Canaveral Space Force Station

Loading…

Nächste Überflüge (nächste 24 Stunden)

TLE

AktuellSource: CelesTrak SupGP

Epoche: Sep 14, 2026, 21:02 UTC

1 66242C 25245J   26257.87687500 -.00052992  00000+0 -15657-2 0  2572
2 66242  53.1576 123.8168 0001279  90.0816 160.3137 15.34416185    11

Verfolge STARLINK-35480 in Echtzeit mit AllMySat

Download on the App Store